• In Österreich
  • Länderverzeichnis
  • Für 7 Tage
  • Wassertemperatur
  • Satellitenkarten
  • Wetterkarte
  • News
  • Widgets
  • user-avatar
    Anmelden

    Stündliche Wetter Kitzbühel

    Heute, 25 Februar, Sonntag

    Zeit Temperatur Niederschläge Wind Luftdruck Luftfeuchtigkeit
    00:00 -10°C° 0 mm 2 m/S 674 mmHg 89%
    01:00 -12°C° 0 mm 2 m/S 674 mmHg 88%
    02:00 -12°C° 0 mm 2 m/S 674 mmHg 88%
    03:00 -13°C° 0 mm 2 m/S 674 mmHg 89%
    04:00 -13°C° 0 mm 2 m/S 674 mmHg 89%
    05:00 -14°C° 0 mm 2 m/S 673 mmHg 90%
    06:00 -15°C° 0 mm 2 m/S 673 mmHg 91%
    07:00 -15°C° 0 mm 2 m/S 673 mmHg 91%
    08:00 -14°C° 0 mm 2 m/S 674 mmHg 88%
    09:00 -13°C° 0 mm 2 m/S 674 mmHg 85%
    10:00 -10°C° 0 mm 2 m/S 674 mmHg 82%
    11:00 -10°C° 0 mm 2 m/S 674 mmHg 80%
    12:00 -9°C° 0 mm 2 m/S 674 mmHg 77%
    13:00 -9°C° 0 mm 3 m/S 674 mmHg 75%
    14:00 -9°C° 0 mm 3 m/S 673 mmHg 76%
    15:00 -10°C° 0 mm 3 m/S 673 mmHg 78%
    16:00 -10°C° 0 mm 3 m/S 673 mmHg 79%
    17:00 -12°C° 0 mm 2 m/S 673 mmHg 83%
    18:00 -13°C° 0 mm 2 m/S 673 mmHg 86%
    19:00 -15°C° 0 mm 2 m/S 673 mmHg 90%
    20:00 -16°C° 0 mm 2 m/S 673 mmHg 91%
    21:00 -14°C° 0 mm 1 m/S 673 mmHg 91%
    22:00 -15°C° 0 mm 1 m/S 673 mmHg 92%
    23:00 -16°C° 0 mm 1 m/S 673 mmHg 92%

    Morgen, 26 Februar, Montag

    Zeit Temperatur Niederschläge Wind Luftdruck Luftfeuchtigkeit
    00:00 -16°C° 0 mm 1 m/S 673 mmHg 92%
    01:00 -17°C° 0 mm 1 m/S 673 mmHg 92%
    02:00 -17°C° 0 mm 1 m/S 673 mmHg 92%
    03:00 -17°C° 0 mm 1 m/S 672 mmHg 92%
    04:00 -18°C° 0 mm 1 m/S 672 mmHg 92%
    05:00 -18°C° 0 mm 1 m/S 672 mmHg 92%
    06:00 -18°C° 0 mm 1 m/S 672 mmHg 92%
    07:00 -19°C° 0 mm 1 m/S 672 mmHg 92%
    08:00 -19°C° 0 mm 2 m/S 673 mmHg 88%
    09:00 -17°C° 0 mm 2 m/S 673 mmHg 84%
    10:00 -16°C° 0 mm 2 m/S 673 mmHg 81%
    11:00 -15°C° 0 mm 2 m/S 673 mmHg 79%
    12:00 -14°C° 0 mm 2 m/S 672 mmHg 78%
    13:00 -14°C° 0 mm 3 m/S 672 mmHg 76%
    14:00 -13°C° 0,1 mm 2 m/S 672 mmHg 77%
    15:00 -13°C° 0,1 mm 2 m/S 672 mmHg 78%
    16:00 -13°C° 0,1 mm 2 m/S 671 mmHg 79%
    17:00 -15°C° 0,1 mm 2 m/S 672 mmHg 83%
    18:00 -16°C° 0,1 mm 2 m/S 672 mmHg 87%
    19:00 -15°C° 0,1 mm 1 m/S 672 mmHg 91%
    20:00 -15°C° 0,1 mm 1 m/S 672 mmHg 91%
    21:00 -16°C° 0,1 mm 1 m/S 672 mmHg 92%
    22:00 -16°C° 0,1 mm 1 m/S 672 mmHg 92%
    23:00 -16°C° 0,1 mm 1 m/S 672 mmHg 92%

    übermorgen, 27 Februar, Dienstag

    Zeit Temperatur Niederschläge Wind Luftdruck Luftfeuchtigkeit
    00:00 -17°C° 0,1 mm 1 m/S 672 mmHg 92%
    01:00 -17°C° 0,1 mm 1 m/S 671 mmHg 92%
    02:00 -17°C° 0 mm 1 m/S 671 mmHg 92%
    03:00 -18°C° 0 mm 1 m/S 671 mmHg 92%
    04:00 -18°C° 0 mm 1 m/S 671 mmHg 92%
    05:00 -18°C° 0 mm 1 m/S 670 mmHg 91%
    06:00 -18°C° 0 mm 1 m/S 670 mmHg 91%
    07:00 -18°C° 0 mm 1 m/S 670 mmHg 91%
    08:00 -17°C° 0 mm 1 m/S 670 mmHg 87%
    09:00 -15°C° 0 mm 1 m/S 671 mmHg 84%
    10:00 -13°C° 0 mm 1 m/S 671 mmHg 80%
    11:00 -12°C° 0 mm 1 m/S 671 mmHg 76%
    12:00 -11°C° 0 mm 1 m/S 670 mmHg 72%
    13:00 -10°C° 0 mm 1 m/S 670 mmHg 69%
    14:00 -10°C° 0,1 mm 1 m/S 670 mmHg 72%
    15:00 -10°C° 0,1 mm 1 m/S 670 mmHg 75%
    16:00 -12°C° 0,1 mm 2 m/S 670 mmHg 77%
    17:00 -12°C° 0 mm 1 m/S 670 mmHg 82%
    18:00 -13°C° 0 mm 1 m/S 670 mmHg 86%
    19:00 -15°C° 0 mm 1 m/S 670 mmHg 91%
    20:00 -15°C° 0 mm 1 m/S 670 mmHg 91%
    21:00 -16°C° 0 mm 1 m/S 671 mmHg 91%
    22:00 -16°C° 0 mm 1 m/S 671 mmHg 90%
    23:00 -17°C° 0 mm 1 m/S 671 mmHg 89%

    28 Februar, Mittwoch

    Zeit Temperatur Niederschläge Wind Luftdruck Luftfeuchtigkeit
    00:00 -17°C° 0 mm 1 m/S 671 mmHg 88%
    01:00 -17°C° 0 mm 1 m/S 671 mmHg 87%
    02:00 -17°C° 0 mm 1 m/S 671 mmHg 87%
    03:00 -17°C° 0 mm 1 m/S 671 mmHg 86%
    04:00 -18°C° 0 mm 1 m/S 671 mmHg 85%
    05:00 -18°C° 0 mm 1 m/S 671 mmHg 84%
    06:00 -18°C° 0 mm 1 m/S 672 mmHg 83%
    07:00 -18°C° 0 mm 1 m/S 672 mmHg 82%
    08:00 -15°C° 0 mm 1 m/S 672 mmHg 76%
    09:00 -12°C° 0 mm 1 m/S 673 mmHg 70%
    10:00 -9°C° 0 mm 1 m/S 673 mmHg 63%
    11:00 -8°C° 0 mm 1 m/S 673 mmHg 61%
    12:00 -7°C° 0 mm 1 m/S 673 mmHg 59%
    13:00 -6°C° 0 mm 1 m/S 673 mmHg 57%
    14:00 -7°C° 0 mm 2 m/S 673 mmHg 61%
    15:00 -7°C° 0 mm 2 m/S 673 mmHg 64%
    16:00 -7°C° 0 mm 2 m/S 673 mmHg 67%
    17:00 -8°C° 0 mm 2 m/S 673 mmHg 73%
    18:00 -10°C° 0 mm 2 m/S 673 mmHg 79%
    19:00 -13°C° 0 mm 2 m/S 673 mmHg 84%
    20:00 -13°C° 0 mm 2 m/S 673 mmHg 84%
    21:00 -13°C° 0 mm 2 m/S 673 mmHg 83%
    22:00 -14°C° 0 mm 2 m/S 673 mmHg 83%
    23:00 -14°C° 0 mm 2 m/S 673 mmHg 82%

    1 März, Donnerstag

    Zeit Temperatur Niederschläge Wind Luftdruck Luftfeuchtigkeit
    00:00 -13°C° 0 mm 2 m/S 672 mmHg 80%
    01:00 -13°C° 0 mm 2 m/S 672 mmHg 79%
    02:00 -13°C° 0 mm 2 m/S 672 mmHg 79%
    03:00 -13°C° 0 mm 2 m/S 671 mmHg 78%
    04:00 -12°C° 0 mm 2 m/S 671 mmHg 78%
    05:00 -12°C° 0 mm 2 m/S 671 mmHg 78%
    06:00 -12°C° 0 mm 2 m/S 671 mmHg 78%
    07:00 -10°C° 0 mm 2 m/S 670 mmHg 78%
    08:00 -8°C° 0 mm 2 m/S 671 mmHg 76%
    09:00 -6°C° 0 mm 2 m/S 671 mmHg 74%
    10:00 -3°C° 0 mm 2 m/S 671 mmHg 72%
    11:00 -2°C° 0 mm 2 m/S 670 mmHg 74%
    12:00 -1°C° 0 mm 2 m/S 670 mmHg 76%
    13:00 +1°C° 0 mm 2 m/S 670 mmHg 79%
    14:00 +1°C° 0 mm 2 m/S 669 mmHg 80%
    15:00 +1°C° 0 mm 2 m/S 669 mmHg 81%
    16:00 +1°C° 0 mm 2 m/S 669 mmHg 83%
    17:00 -1°C° 0 mm 2 m/S 669 mmHg 84%
    18:00 -3°C° 0 mm 2 m/S 669 mmHg 86%
    19:00 -4°C° 0 mm 2 m/S 669 mmHg 88%
    20:00 -4°C° 0 mm 2 m/S 669 mmHg 88%
    21:00 -4°C° 0 mm 2 m/S 669 mmHg 87%
    22:00 -4°C° 0 mm 2 m/S 669 mmHg 87%
    23:00 -4°C° 0 mm 2 m/S 668 mmHg 87%

    2 März, Freitag

    Zeit Temperatur Niederschläge Wind Luftdruck Luftfeuchtigkeit
    00:00 -4°C° 0 mm 2 m/S 668 mmHg 87%
    01:00 -4°C° 0 mm 2 m/S 668 mmHg 87%
    02:00 -4°C° 0 mm 2 m/S 668 mmHg 87%
    03:00 -4°C° 0 mm 2 m/S 667 mmHg 87%
    04:00 -4°C° 0 mm 2 m/S 667 mmHg 87%
    05:00 -4°C° 0 mm 2 m/S 667 mmHg 87%
    06:00 -4°C° 0 mm 2 m/S 667 mmHg 87%
    07:00 -3°C° 0 mm 2 m/S 667 mmHg 86%
    08:00 -2°C° 0 mm 2 m/S 667 mmHg 86%
    09:00 +1°C° 0 mm 2 m/S 667 mmHg 86%
    10:00 +3°C° 0 mm 2 m/S 668 mmHg 86%
    11:00 +5°C° 0 mm 1 m/S 668 mmHg 86%
    12:00 +6°C° 0 mm 1 m/S 668 mmHg 87%
    13:00 +7°C° 0 mm 1 m/S 668 mmHg 87%
    14:00 +6°C° 0 mm 1 m/S 668 mmHg 88%
    15:00 +6°C° 0 mm 1 m/S 668 mmHg 90%
    16:00 +6°C° 0 mm 1 m/S 668 mmHg 91%
    17:00 +5°C° 0,1 mm 1 m/S 668 mmHg 92%
    18:00 +4°C° 0,1 mm 1 m/S 668 mmHg 93%
    19:00 +3°C° 0,1 mm 1 m/S 668 mmHg 94%
    20:00 +3°C° 0,2 mm 1 m/S 669 mmHg 94%
    21:00 +3°C° 0,2 mm 1 m/S 669 mmHg 94%
    22:00 +3°C° 0,2 mm 1 m/S 669 mmHg 94%
    23:00 +3°C° 0 mm 1 m/S 669 mmHg 93%
    Mehr zeigen